StationID,Date,MaxTemp,MinTemp,Precipitation,Snowfall,SnowDepth
"CA001094456","1989-05-01",,,20.00,0.00,0.00
"CA001094456","1989-05-02",,,0.00,0.00,0.00
"CA001094456","1989-05-03",,,0.00,0.00,0.00
"CA001094456","1989-05-04",,,0.00,0.00,0.00
"CA001094456","1989-05-05",,,0.00,0.00,0.00
"CA001094456","1989-05-06",,,4.00,0.00,0.00
"CA001094456","1989-05-07",,,0.00,0.00,0.00
"CA001094456","1989-05-08",,,0.00,0.00,0.00
"CA001094456","1989-05-09",,,10.00,0.00,0.00
"CA001094456","1989-05-10",,,86.00,0.00,0.00
"CA001094456","1989-05-11",,,20.00,0.00,0.00
"CA001094456","1989-05-12",,,0.00,0.00,0.00
"CA001094456","1989-05-13",,,0.00,0.00,0.00
"CA001094456","1989-05-14",,,0.00,0.00,0.00
"CA001094456","1989-05-15",,,8.00,0.00,0.00
"CA001094456","1989-05-16",,,44.00,0.00,0.00
"CA001094456","1989-05-17",,,16.00,0.00,0.00
"CA001094456","1989-05-18",,,92.00,0.00,0.00
"CA001094456","1989-05-19",,,0.00,0.00,0.00
"CA001094456","1989-05-20",,,0.00,0.00,0.00
"CA001094456","1989-05-21",,,0.00,0.00,0.00
"CA001094456","1989-05-22",,,0.00,0.00,0.00
"CA001094456","1989-05-23",,,0.00,0.00,0.00
"CA001094456","1989-05-24",,,0.00,0.00,0.00
"CA001094456","1989-05-25",,,20.00,0.00,0.00
"CA001094456","1989-05-26",,,24.00,0.00,0.00
"CA001094456","1989-05-27",,,2.00,0.00,0.00
"CA001094456","1989-05-28",,,0.00,0.00,0.00
"CA001094456","1989-05-29",,,0.00,0.00,0.00
"CA001094456","1989-05-30",,,0.00,0.00,0.00
"CA001094456","1989-05-31",,,0.00,0.00,0.00
"CA001094456","1989-06-01",,,0.00,0.00,0.00
"CA001094456","1989-06-02",,,0.00,0.00,0.00
"CA001094456","1989-06-03",,,0.00,0.00,0.00
"CA001094456","1989-06-04",,,0.00,0.00,0.00
"CA001094456","1989-06-05",,,0.00,0.00,0.00
"CA001094456","1989-06-06",,,0.00,0.00,0.00
"CA001094456","1989-06-07",,,0.00,0.00,0.00
"CA001094456","1989-06-08",,,8.00,0.00,0.00
"CA001094456","1989-06-09",,,0.00,0.00,0.00
"CA001094456","1989-06-10",,,0.00,0.00,0.00
"CA001094456","1989-06-11",,,0.00,0.00,0.00
"CA001094456","1989-06-12",,,4.00,0.00,0.00
"CA001094456","1989-06-13",,,14.00,0.00,0.00
"CA001094456","1989-06-14",,,68.00,0.00,0.00
"CA001094456","1989-06-15",,,12.00,0.00,0.00
"CA001094456","1989-06-16",,,10.00,0.00,0.00
"CA001094456","1989-06-17",,,0.00,0.00,0.00
"CA001094456","1989-06-18",,,0.00,0.00,0.00
"CA001094456","1989-06-19",,,37.00,0.00,0.00
"CA001094456","1989-06-20",,,8.00,0.00,0.00
"CA001094456","1989-06-21",,,60.00,0.00,0.00
"CA001094456","1989-06-22",,,0.00,0.00,0.00
"CA001094456","1989-06-23",,,0.00,0.00,0.00
"CA001094456","1989-06-24",,,0.00,0.00,0.00
"CA001094456","1989-06-25",,,32.00,0.00,0.00
"CA001094456","1989-06-26",,,42.00,0.00,0.00
"CA001094456","1989-06-27",,,4.00,0.00,0.00
"CA001094456","1989-06-28",,,0.00,0.00,0.00
"CA001094456","1989-06-29",,,10.00,0.00,0.00
"CA001094456","1989-06-30",,,62.00,0.00,0.00
"CA001094456","1989-07-01",,,42.00,0.00,0.00
"CA001094456","1989-07-02",,,0.00,0.00,0.00
"CA001094456","1989-07-03",,,22.00,0.00,0.00
"CA001094456","1989-07-04",,,34.00,0.00,0.00
"CA001094456","1989-07-05",,,8.00,0.00,0.00
"CA001094456","1989-07-06",,,6.00,0.00,0.00
"CA001094456","1989-07-07",,,14.00,0.00,0.00
"CA001094456","1989-07-08",,,0.00,0.00,0.00
"CA001094456","1989-07-09",,,0.00,0.00,0.00
"CA001094456","1989-07-10",,,114.00,0.00,0.00
"CA001094456","1989-07-11",,,50.00,0.00,0.00
"CA001094456","1989-07-12",,,4.00,0.00,0.00
"CA001094456","1989-07-13",,,40.00,0.00,0.00
"CA001094456","1989-07-14",,,6.00,0.00,0.00
"CA001094456","1989-07-15",,,46.00,0.00,0.00
"CA001094456","1989-07-16",,,0.00,0.00,0.00
"CA001094456","1989-07-17",,,0.00,0.00,0.00
"CA001094456","1989-07-18",,,0.00,0.00,0.00
"CA001094456","1989-07-19",,,0.00,0.00,0.00
"CA001094456","1989-07-20",,,0.00,0.00,0.00
"CA001094456","1989-07-21",,,106.00,0.00,0.00
"CA001094456","1989-07-22",,,0.00,0.00,0.00
"CA001094456","1989-07-23",,,0.00,0.00,0.00
"CA001094456","1989-07-24",,,0.00,0.00,0.00
"CA001094456","1989-07-25",,,0.00,0.00,0.00
"CA001094456","1989-07-26",,,32.00,0.00,0.00
"CA001094456","1989-07-27",,,0.00,0.00,0.00
"CA001094456","1989-07-28",,,0.00,0.00,0.00
"CA001094456","1989-07-29",,,0.00,0.00,0.00
"CA001094456","1989-07-30",,,66.00,0.00,0.00
"CA001094456","1989-07-31",,,4.00,0.00,0.00
"CA001094456","1989-08-01",,,290.00,0.00,0.00
"CA001094456","1989-08-02",,,74.00,0.00,0.00
"CA001094456","1989-08-03",,,0.00,0.00,0.00
"CA001094456","1989-08-04",,,0.00,0.00,0.00
"CA001094456","1989-08-05",,,0.00,0.00,0.00
"CA001094456","1989-08-06",,,0.00,0.00,0.00
"CA001094456","1989-08-07",,,0.00,0.00,0.00
"CA001094456","1989-08-08",,,30.00,0.00,0.00
"CA001094456","1989-08-09",,,26.00,0.00,0.00
"CA001094456","1989-08-10",,,0.00,0.00,0.00
"CA001094456","1989-08-11",,,0.00,0.00,0.00
"CA001094456","1989-08-12",,,28.00,0.00,0.00
"CA001094456","1989-08-13",,,0.00,0.00,0.00
"CA001094456","1989-08-14",,,110.00,0.00,0.00
"CA001094456","1989-08-15",,,232.00,0.00,0.00
"CA001094456","1989-08-16",,,0.00,0.00,0.00
"CA001094456","1989-08-17",,,0.00,0.00,0.00
"CA001094456","1989-08-18",,,12.00,0.00,0.00
"CA001094456","1989-08-19",,,0.00,0.00,0.00
"CA001094456","1989-08-20",,,86.00,0.00,0.00
"CA001094456","1989-08-21",,,208.00,0.00,0.00
"CA001094456","1989-08-22",,,0.00,0.00,0.00
"CA001094456","1989-08-23",,,0.00,0.00,0.00
"CA001094456","1989-08-24",,,0.00,0.00,0.00
"CA001094456","1989-08-25",,,0.00,0.00,0.00
"CA001094456","1989-08-26",,,0.00,0.00,0.00
"CA001094456","1989-08-27",,,0.00,0.00,0.00
"CA001094456","1989-08-28",,,0.00,0.00,0.00
"CA001094456","1989-08-29",,,0.00,0.00,0.00
"CA001094456","1989-08-30",,,0.00,0.00,0.00
"CA001094456","1989-08-31",,,14.00,0.00,0.00
"CA001094456","1989-09-01",,,34.00,0.00,0.00
"CA001094456","1989-09-02",,,4.00,0.00,0.00
"CA001094456","1989-09-03",,,0.00,0.00,0.00
"CA001094456","1989-09-04",,,0.00,0.00,0.00
"CA001094456","1989-09-05",,,0.00,0.00,0.00
"CA001094456","1989-09-06",,,0.00,0.00,0.00
"CA001094456","1989-09-07",,,0.00,0.00,0.00
"CA001094456","1989-09-08",,,0.00,0.00,0.00
"CA001094456","1989-09-09",,,0.00,0.00,0.00
"CA001094456","1989-09-10",,,0.00,0.00,0.00
"CA001094456","1989-09-11",,,0.00,0.00,0.00
"CA001094456","1989-09-12",,,0.00,0.00,0.00
"CA001094456","1989-09-13",,,0.00,0.00,0.00
"CA001094456","1989-09-14",,,0.00,0.00,0.00
"CA001094456","1989-09-15",,,0.00,0.00,0.00
"CA001094456","1989-09-16",,,12.00,0.00,0.00
"CA001094456","1989-09-17",,,0.00,0.00,0.00
"CA001094456","1989-09-18",,,8.00,0.00,0.00
"CA001094456","1989-09-19",,,0.00,0.00,0.00
"CA001094456","1989-09-20",,,0.00,0.00,0.00
"CA001094456","1989-09-21",,,0.00,0.00,0.00
"CA001094456","1989-09-22",,,0.00,0.00,0.00
"CA001094456","1989-09-23",,,0.00,0.00,0.00
"CA001094456","1989-09-24",,,0.00,0.00,0.00
"CA001094456","1989-09-25",,,0.00,0.00,0.00
"CA001094456","1989-09-26",,,0.00,0.00,0.00
"CA001094456","1989-09-27",,,0.00,0.00,0.00
"CA001094456","1989-09-28",,,0.00,0.00,0.00
"CA001094456","1989-09-29",,,0.00,0.00,0.00
"CA001094456","1989-09-30",,,0.00,0.00,0.00
"CA001094456","1989-10-01",,,0.00,0.00,0.00
"CA001094456","1989-10-02",,,0.00,0.00,0.00
"CA001094456","1989-10-03",,,0.00,0.00,0.00
"CA001094456","1989-10-04",,,0.00,0.00,0.00
"CA001094456","1989-10-05",,,16.00,0.00,0.00
"CA001094456","1989-10-06",,,0.00,0.00,0.00
"CA001094456","1989-10-07",,,0.00,0.00,0.00
"CA001094456","1989-10-08",,,0.00,0.00,0.00
"CA001094456","1989-10-09",,,104.00,0.00,0.00
"CA001094456","1989-10-10",,,16.00,0.00,0.00
"CA001094456","1989-10-11",,,8.00,0.00,0.00
"CA001094456","1989-10-12",,,12.00,0.00,0.00
"CA001094456","1989-10-13",,,38.00,0.00,0.00
"CA001094456","1989-10-14",,,0.00,0.00,0.00
"CA001094456","1989-10-15",,,0.00,0.00,0.00
"CA001094456","1989-10-16",,,4.00,0.00,0.00
"CA001094456","1989-10-17",,,0.00,0.00,0.00
"CA001094456","1989-10-18",,,0.00,0.00,0.00
"CA001094456","1989-10-19",,,0.00,0.00,0.00
"CA001094456","1989-10-20",,,0.00,0.00,0.00
"CA001094456","1989-10-21",,,0.00,0.00,0.00
"CA001094456","1989-10-22",,,0.00,0.00,0.00
"CA001094456","1989-10-23",,,56.00,0.00,0.00
"CA001094456","1989-10-24",,,104.00,0.00,0.00
"CA001094456","1989-10-25",,,0.00,0.00,0.00
"CA001094456","1989-10-26",,,48.00,0.00,0.00
"CA001094456","1989-10-27",,,0.00,0.00,0.00
"CA001094456","1989-10-28",,,0.00,0.00,0.00
"CA001094456","1989-10-29",,,0.00,0.00,0.00
"CA001094456","1989-10-30",,,0.00,0.00,0.00
"CA001094456","1989-10-31",,,0.00,0.00,0.00
"CA001094456","1989-11-01",,,0.00,0.00,0.00
"CA001094456","1989-11-02",,,,,0.00
"CA001094456","1989-11-03",,,,0.00,0.00
"CA001094456","1989-11-04",,,0.00,0.00,0.00
"CA001094456","1989-11-05",,,,,0.00
"CA001094456","1989-11-06",,,,,0.00
"CA001094456","1989-11-07",,,0.00,0.00,0.00
"CA001094456","1989-11-08",,,92.00,0.00,0.00
"CA001094456","1989-11-09",,,0.00,0.00,0.00
"CA001094456","1989-11-10",,,0.00,0.00,0.00
"CA001094456","1989-11-11",,,0.00,0.00,0.00
"CA001094456","1989-11-12",,,0.00,0.00,0.00
"CA001094456","1989-11-13",,,0.00,0.00,0.00
"CA001094456","1989-11-14",,,0.00,0.00,0.00
"CA001094456","1989-11-15",,,40.00,40.00,0.00
"CA001094456","1989-11-16",,,0.00,0.00,20.00
"CA001094456","1989-11-17",,,2.00,0.00,0.00
"CA001094456","1989-11-18",,,16.00,10.00,0.00
"CA001094456","1989-11-19",,,30.00,30.00,10.00
"CA001094456","1989-11-20",,,90.00,90.00,20.00
"CA001094456","1989-11-21",,,0.00,0.00,110.00
"CA001094456","1989-11-22",,,0.00,0.00,110.00
"CA001094456","1989-11-23",,,20.00,20.00,90.00
"CA001094456","1989-11-24",,,20.00,20.00,110.00
"CA001094456","1989-11-25",,,0.00,0.00,130.00
"CA001094456","1989-11-26",,,0.00,0.00,130.00
"CA001094456","1989-11-27",,,0.00,0.00,130.00
"CA001094456","1989-11-28",,,0.00,0.00,120.00
"CA001094456","1989-11-29",,,0.00,0.00,110.00
"CA001094456","1989-11-30",,,0.00,0.00,100.00
"CA001094456","1989-12-01",,,10.00,10.00,100.00
"CA001094456","1989-12-02",,,8.00,0.00,110.00
"CA001094456","1989-12-03",,,26.00,0.00,100.00
"CA001094456","1989-12-04",,,0.00,0.00,100.00
"CA001094456","1989-12-05",,,0.00,0.00,90.00
"CA001094456","1989-12-06",,,10.00,10.00,90.00
"CA001094456","1989-12-07",,,20.00,20.00,100.00
"CA001094456","1989-12-08",,,0.00,0.00,120.00
"CA001094456","1989-12-09",,,10.00,10.00,120.00
"CA001094456","1989-12-10",,,0.00,0.00,130.00
"CA001094456","1989-12-11",,,0.00,0.00,130.00
"CA001094456","1989-12-12",,,0.00,0.00,130.00
"CA001094456","1989-12-13",,,0.00,0.00,130.00
"CA001094456","1989-12-14",,,0.00,0.00,130.00
"CA001094456","1989-12-15",,,0.00,0.00,120.00
"CA001094456","1989-12-16",,,0.00,0.00,120.00
"CA001094456","1989-12-17",,,0.00,0.00,120.00
"CA001094456","1989-12-18",,,120.00,120.00,120.00
"CA001094456","1989-12-19",,,380.00,380.00,240.00
"CA001094456","1989-12-20",,,20.00,20.00,540.00
"CA001094456","1989-12-21",,,20.00,20.00,560.00
"CA001094456","1989-12-22",,,0.00,0.00,470.00
"CA001094456","1989-12-23",,,0.00,0.00,440.00
"CA001094456","1989-12-24",,,0.00,0.00,420.00
"CA001094456","1989-12-25",,,0.00,0.00,400.00
"CA001094456","1989-12-26",,,0.00,0.00,370.00
"CA001094456","1989-12-27",,,30.00,30.00,360.00
"CA001094456","1989-12-28",,,30.00,30.00,380.00
"CA001094456","1989-12-29",,,90.00,90.00,400.00
"CA001094456","1989-12-30",,,0.00,0.00,490.00
"CA001094456","1989-12-31",,,20.00,20.00,420.00
"CA001094456","1990-01-01",,,50.00,50.00,420.00
"CA001094456","1990-01-02",,,10.00,10.00,430.00
"CA001094456","1990-01-03",,,0.00,0.00,430.00
"CA001094456","1990-01-04",,,0.00,0.00,430.00
"CA001094456","1990-01-05",,,0.00,0.00,420.00
"CA001094456","1990-01-06",,,0.00,0.00,420.00
"CA001094456","1990-01-07",,,0.00,0.00,400.00
"CA001094456","1990-01-08",,,0.00,0.00,400.00
"CA001094456","1990-01-09",,,0.00,0.00,400.00
"CA001094456","1990-01-10",,,0.00,0.00,400.00
"CA001094456","1990-01-11",,,0.00,0.00,400.00
"CA001094456","1990-01-12",,,0.00,0.00,400.00
"CA001094456","1990-01-13",,,40.00,30.00,400.00
"CA001094456","1990-01-14",,,0.00,0.00,420.00
"CA001094456","1990-01-15",,,10.00,10.00,420.00
"CA001094456","1990-01-16",,,0.00,0.00,430.00
"CA001094456","1990-01-17",,,0.00,0.00,430.00
"CA001094456","1990-01-18",,,0.00,0.00,430.00
"CA001094456","1990-01-19",,,0.00,0.00,430.00
"CA001094456","1990-01-20",,,0.00,0.00,420.00
"CA001094456","1990-01-21",,,50.00,30.00,420.00
"CA001094456","1990-01-22",,,0.00,0.00,450.00
"CA001094456","1990-01-23",,,20.00,20.00,440.00
"CA001094456","1990-01-24",,,0.00,0.00,440.00
"CA001094456","1990-01-25",,,0.00,0.00,440.00
"CA001094456","1990-01-26",,,0.00,0.00,440.00
"CA001094456","1990-01-27",,,30.00,30.00,440.00
"CA001094456","1990-01-28",,,30.00,30.00,460.00
"CA001094456","1990-01-29",,,50.00,50.00,480.00
"CA001094456","1990-01-30",,,20.00,20.00,530.00
"CA001094456","1990-01-31",,,30.00,30.00,530.00
"CA001094456","1990-02-01",,,0.00,0.00,560.00
"CA001094456","1990-02-02",,,0.00,0.00,560.00
"CA001094456","1990-02-03",,,90.00,90.00,540.00
"CA001094456","1990-02-04",,,0.00,0.00,590.00
"CA001094456","1990-02-05",,,0.00,0.00,580.00
"CA001094456","1990-02-06",,,0.00,0.00,560.00
"CA001094456","1990-02-07",,,20.00,20.00,560.00
"CA001094456","1990-02-08",,,0.00,0.00,570.00
"CA001094456","1990-02-09",,,0.00,0.00,570.00
"CA001094456","1990-02-10",,,20.00,20.00,550.00
"CA001094456","1990-02-11",,,20.00,20.00,540.00
"CA001094456","1990-02-12",,,40.00,40.00,560.00
"CA001094456","1990-02-13",,,0.00,0.00,580.00
"CA001094456","1990-02-14",,,40.00,40.00,580.00
"CA001094456","1990-02-15",,,20.00,20.00,600.00
"CA001094456","1990-02-16",,,0.00,0.00,600.00
"CA001094456","1990-02-17",,,0.00,0.00,580.00
"CA001094456","1990-02-18",,,0.00,0.00,580.00
"CA001094456","1990-02-19",,,0.00,0.00,580.00
"CA001094456","1990-02-20",,,0.00,0.00,570.00
"CA001094456","1990-02-21",,,0.00,0.00,560.00
"CA001094456","1990-02-22",,,0.00,0.00,550.00
"CA001094456","1990-02-23",,,6.00,0.00,530.00
"CA001094456","1990-02-24",,,2.00,0.00,520.00
"CA001094456","1990-02-25",,,0.00,0.00,460.00
"CA001094456","1990-02-26",,,0.00,0.00,460.00
"CA001094456","1990-02-27",,,0.00,0.00,460.00
"CA001094456","1990-02-28",,,0.00,0.00,450.00
"CA001094456","1990-03-01",,,0.00,0.00,440.00
"CA001094456","1990-03-02",,,0.00,0.00,420.00
"CA001094456","1990-03-03",,,0.00,0.00,410.00
"CA001094456","1990-03-04",,,0.00,0.00,390.00
"CA001094456","1990-03-05",,,0.00,0.00,390.00
"CA001094456","1990-03-06",,,0.00,0.00,370.00
"CA001094456","1990-03-07",,,120.00,120.00,370.00
"CA001094456","1990-03-08",,,0.00,0.00,480.00
"CA001094456","1990-03-09",,,0.00,0.00,430.00
"CA001094456","1990-03-10",,,0.00,0.00,410.00
"CA001094456","1990-03-11",,,0.00,0.00,400.00
"CA001094456","1990-03-12",,,0.00,0.00,380.00
"CA001094456","1990-03-13",,,0.00,0.00,380.00
"CA001094456","1990-03-14",,,0.00,0.00,370.00
"CA001094456","1990-03-15",,,0.00,0.00,360.00
"CA001094456","1990-03-16",,,0.00,0.00,340.00
"CA001094456","1990-03-17",,,0.00,0.00,340.00
"CA001094456","1990-03-18",,,0.00,0.00,300.00
"CA001094456","1990-03-19",,,4.00,0.00,280.00
"CA001094456","1990-03-20",,,,,240.00
"CA001094456","1990-03-21",,,0.00,0.00,200.00
"CA001094456","1990-03-22",,,0.00,0.00,200.00
"CA001094456","1990-03-23",,,0.00,0.00,200.00
"CA001094456","1990-03-24",,,0.00,0.00,200.00
"CA001094456","1990-03-25",,,0.00,0.00,200.00
"CA001094456","1990-03-26",,,0.00,0.00,180.00
"CA001094456","1990-03-27",,,0.00,0.00,170.00
"CA001094456","1990-03-28",,,0.00,0.00,160.00
"CA001094456","1990-03-29",,,0.00,0.00,120.00
"CA001094456","1990-03-30",,,0.00,0.00,100.00
"CA001094456","1990-03-31",,,0.00,0.00,80.00
"CA001094456","1990-04-01",,,0.00,0.00,40.00
"CA001094456","1990-04-02",,,0.00,0.00,20.00
"CA001094456","1990-04-03",,,0.00,0.00,0.00
"CA001094456","1990-04-04",,,0.00,0.00,0.00
"CA001094456","1990-04-05",,,0.00,0.00,0.00
"CA001094456","1990-04-06",,,0.00,0.00,0.00
"CA001094456","1990-04-07",,,0.00,0.00,0.00
"CA001094456","1990-04-08",,,0.00,0.00,0.00
"CA001094456","1990-04-09",,,0.00,0.00,0.00
"CA001094456","1990-04-10",,,0.00,0.00,0.00
"CA001094456","1990-04-11",,,,,0.00
"CA001094456","1990-04-12",,,0.00,0.00,0.00
"CA001094456","1990-04-13",,,12.00,0.00,0.00
"CA001094456","1990-04-14",,,0.00,0.00,0.00
"CA001094456","1990-04-15",,,0.00,0.00,0.00
"CA001094456","1990-04-16",,,0.00,0.00,0.00
"CA001094456","1990-04-17",,,2.00,0.00,0.00
"CA001094456","1990-04-18",,,0.00,0.00,0.00
"CA001094456","1990-04-19",,,18.00,0.00,0.00
"CA001094456","1990-04-20",,,0.00,0.00,0.00
"CA001094456","1990-04-21",,,0.00,0.00,0.00
"CA001094456","1990-04-22",,,0.00,0.00,0.00
"CA001094456","1990-04-23",,,74.00,0.00,0.00
"CA001094456","1990-04-24",,,4.00,0.00,0.00
"CA001094456","1990-04-25",,,,,0.00
"CA001094456","1990-04-26",,,,,0.00
"CA001094456","1990-04-27",,,,,0.00
"CA001094456","1990-04-28",,,0.00,0.00,10.00
"CA001094456","1990-04-29",,,0.00,0.00,0.00
"CA001094456","1990-04-30",,,0.00,0.00,0.00
"CA001094456","1990-05-01",,,46.00,0.00,0.00
"CA001094456","1990-05-02",,,20.00,0.00,0.00
"CA001094456","1990-05-03",,,0.00,0.00,0.00
"CA001094456","1990-05-04",,,0.00,0.00,0.00
"CA001094456","1990-05-05",,,0.00,0.00,0.00
"CA001094456","1990-05-06",,,12.00,0.00,0.00
"CA001094456","1990-05-07",,,4.00,0.00,0.00
"CA001094456","1990-05-08",,,0.00,0.00,0.00
"CA001094456","1990-05-09",,,0.00,0.00,0.00
"CA001094456","1990-05-10",,,60.00,0.00,0.00
"CA001094456","1990-05-11",,,38.00,0.00,0.00
"CA001094456","1990-05-12",,,0.00,0.00,0.00
"CA001094456","1990-05-13",,,0.00,0.00,0.00
"CA001094456","1990-05-14",,,16.00,0.00,0.00
"CA001094456","1990-05-15",,,0.00,0.00,0.00
"CA001094456","1990-05-16",,,80.00,0.00,0.00
"CA001094456","1990-05-17",,,18.00,0.00,0.00
"CA001094456","1990-05-18",,,4.00,0.00,0.00
"CA001094456","1990-05-19",,,12.00,0.00,0.00
"CA001094456","1990-05-20",,,46.00,0.00,0.00
"CA001094456","1990-05-21",,,0.00,0.00,0.00
"CA001094456","1990-05-22",,,0.00,0.00,0.00
"CA001094456","1990-05-23",,,24.00,0.00,0.00
"CA001094456","1990-05-24",,,48.00,0.00,0.00
"CA001094456","1990-05-25",,,48.00,0.00,0.00
"CA001094456","1990-05-26",,,4.00,0.00,0.00
"CA001094456","1990-05-27",,,6.00,0.00,0.00
"CA001094456","1990-05-28",,,12.00,0.00,0.00
"CA001094456","1990-05-29",,,50.00,0.00,0.00
"CA001094456","1990-05-30",,,0.00,0.00,0.00
"CA001094456","1990-05-31",,,8.00,0.00,0.00
"CA001094456","1990-06-01",,,0.00,0.00,0.00
"CA001094456","1990-06-02",,,6.00,0.00,0.00
"CA001094456","1990-06-03",,,110.00,0.00,0.00
"CA001094456","1990-06-04",,,36.00,0.00,0.00
"CA001094456","1990-06-05",,,0.00,0.00,0.00
"CA001094456","1990-06-06",,,66.00,0.00,0.00
"CA001094456","1990-06-07",,,4.00,0.00,0.00
"CA001094456","1990-06-08",,,14.00,0.00,0.00
"CA001094456","1990-06-09",,,94.00,0.00,0.00
"CA001094456","1990-06-10",,,194.00,0.00,0.00
"CA001094456","1990-06-11",,,172.00,0.00,0.00
"CA001094456","1990-06-12",,,56.00,0.00,0.00
"CA001094456","1990-06-13",,,0.00,0.00,0.00
"CA001094456","1990-06-14",,,0.00,0.00,0.00
"CA001094456","1990-06-15",,,0.00,0.00,0.00
"CA001094456","1990-06-16",,,0.00,0.00,0.00
"CA001094456","1990-06-17",,,8.00,0.00,0.00
"CA001094456","1990-06-18",,,36.00,0.00,0.00
"CA001094456","1990-06-19",,,164.00,0.00,0.00
"CA001094456","1990-06-20",,,0.00,0.00,0.00
"CA001094456","1990-06-21",,,0.00,0.00,0.00
"CA001094456","1990-06-22",,,0.00,0.00,0.00
"CA001094456","1990-06-23",,,0.00,0.00,0.00
"CA001094456","1990-06-24",,,12.00,0.00,0.00
"CA001094456","1990-06-25",,,0.00,0.00,0.00
"CA001094456","1990-06-26",,,0.00,0.00,0.00
"CA001094456","1990-06-27",,,32.00,0.00,0.00
"CA001094456","1990-06-28",,,4.00,0.00,0.00
"CA001094456","1990-06-29",,,0.00,0.00,0.00
"CA001094456","1990-06-30",,,0.00,0.00,0.00
"CA001094456","1990-07-01",,,0.00,0.00,0.00
"CA001094456","1990-07-02",,,74.00,0.00,0.00
"CA001094456","1990-07-03",,,6.00,0.00,0.00
"CA001094456","1990-07-04",,,6.00,0.00,0.00
"CA001094456","1990-07-05",,,52.00,0.00,0.00
"CA001094456","1990-07-06",,,230.00,0.00,0.00
"CA001094456","1990-07-07",,,0.00,0.00,0.00
"CA001094456","1990-07-08",,,44.00,0.00,0.00
"CA001094456","1990-07-09",,,0.00,0.00,0.00
"CA001094456","1990-07-10",,,0.00,0.00,0.00
"CA001094456","1990-07-11",,,0.00,0.00,0.00
"CA001094456","1990-07-12",,,0.00,0.00,0.00
"CA001094456","1990-07-13",,,0.00,0.00,0.00
"CA001094456","1990-07-14",,,0.00,0.00,0.00
"CA001094456","1990-07-15",,,4.00,0.00,0.00
"CA001094456","1990-07-16",,,0.00,0.00,0.00
"CA001094456","1990-07-17",,,18.00,0.00,0.00
"CA001094456","1990-07-18",,,0.00,0.00,0.00
"CA001094456","1990-07-19",,,0.00,0.00,0.00
"CA001094456","1990-07-20",,,0.00,0.00,0.00
"CA001094456","1990-07-21",,,0.00,0.00,0.00
"CA001094456","1990-07-22",,,6.00,0.00,0.00
"CA001094456","1990-07-23",,,52.00,0.00,0.00
"CA001094456","1990-07-24",,,6.00,0.00,0.00
"CA001094456","1990-07-25",,,0.00,0.00,0.00
"CA001094456","1990-07-26",,,0.00,0.00,0.00
"CA001094456","1990-07-27",,,0.00,0.00,0.00
"CA001094456","1990-07-28",,,0.00,0.00,0.00
"CA001094456","1990-07-29",,,0.00,0.00,0.00
"CA001094456","1990-07-30",,,30.00,0.00,0.00
"CA001094456","1990-07-31",,,4.00,0.00,0.00
"CA001094456","1990-08-01",,,0.00,0.00,0.00
"CA001094456","1990-08-02",,,0.00,0.00,0.00
"CA001094456","1990-08-03",,,0.00,0.00,0.00
"CA001094456","1990-08-04",,,0.00,0.00,0.00
"CA001094456","1990-08-05",,,0.00,0.00,0.00
"CA001094456","1990-08-06",,,0.00,0.00,0.00
"CA001094456","1990-08-07",,,0.00,0.00,0.00
"CA001094456","1990-08-08",,,0.00,0.00,0.00
"CA001094456","1990-08-09",,,0.00,0.00,0.00
"CA001094456","1990-08-10",,,0.00,0.00,0.00
"CA001094456","1990-08-11",,,0.00,0.00,0.00
"CA001094456","1990-08-12",,,0.00,0.00,0.00
"CA001094456","1990-08-13",,,0.00,0.00,0.00
"CA001094456","1990-08-14",,,0.00,0.00,0.00
"CA001094456","1990-08-15",,,0.00,0.00,0.00
"CA001094456","1990-08-16",,,0.00,0.00,0.00
"CA001094456","1990-08-17",,,0.00,0.00,0.00
"CA001094456","1990-08-18",,,0.00,0.00,0.00
"CA001094456","1990-08-19",,,0.00,0.00,0.00
"CA001094456","1990-08-20",,,0.00,0.00,0.00
"CA001094456","1990-08-21",,,4.00,0.00,0.00
"CA001094456","1990-08-22",,,48.00,0.00,0.00
"CA001094456","1990-08-23",,,14.00,0.00,0.00
"CA001094456","1990-08-24",,,0.00,0.00,0.00
"CA001094456","1990-08-25",,,28.00,0.00,0.00
"CA001094456","1990-08-26",,,0.00,0.00,0.00
"CA001094456","1990-08-27",,,0.00,0.00,0.00
"CA001094456","1990-08-28",,,0.00,0.00,0.00
"CA001094456","1990-08-29",,,6.00,0.00,0.00
"CA001094456","1990-08-30",,,6.00,0.00,0.00
"CA001094456","1990-08-31",,,0.00,0.00,0.00
"CA001094456","1990-09-01",66.20,39.20,0.00,0.00,0.00
"CA001094456","1990-09-02",63.50,37.40,0.00,0.00,0.00
"CA001094456","1990-09-03",66.20,26.60,0.00,0.00,0.00
"CA001094456","1990-09-04",75.20,25.70,0.00,0.00,0.00
"CA001094456","1990-09-05",77.00,33.80,0.00,0.00,0.00
"CA001094456","1990-09-06",79.70,30.20,0.00,0.00,0.00
"CA001094456","1990-09-07",82.40,30.20,0.00,0.00,0.00
"CA001094456","1990-09-08",77.00,35.60,0.00,0.00,0.00
"CA001094456","1990-09-09",75.20,30.20,0.00,0.00,0.00
"CA001094456","1990-09-10",78.80,30.20,0.00,0.00,0.00
"CA001094456","1990-09-11",78.80,32.00,0.00,0.00,0.00
"CA001094456","1990-09-12",68.00,32.00,0.00,0.00,0.00
"CA001094456","1990-09-13",73.40,26.60,0.00,0.00,0.00
"CA001094456","1990-09-14",78.80,28.40,0.00,0.00,0.00
"CA001094456","1990-09-15",74.30,29.30,50.00,0.00,0.00
"CA001094456","1990-09-16",57.20,50.00,114.00,0.00,0.00
"CA001094456","1990-09-17",66.20,32.90,0.00,0.00,0.00
"CA001094456","1990-09-18",67.10,35.60,0.00,0.00,0.00
"CA001094456","1990-09-19",66.20,28.40,0.00,0.00,0.00
"CA001094456","1990-09-20",65.30,33.80,0.00,0.00,0.00
"CA001094456","1990-09-21",72.50,32.00,0.00,0.00,0.00
"CA001094456","1990-09-22",79.70,32.90,0.00,0.00,0.00
"CA001094456","1990-09-23",80.60,39.20,0.00,0.00,0.00
"CA001094456","1990-09-24",78.80,30.20,0.00,0.00,0.00
"CA001094456","1990-09-25",63.50,32.00,0.00,0.00,0.00
"CA001094456","1990-09-26",65.30,23.00,0.00,0.00,0.00
"CA001094456","1990-09-27",67.10,20.30,0.00,0.00,0.00
"CA001094456","1990-09-28",66.20,34.70,0.00,0.00,0.00